TimeCDT,TemperatureF,Dew PointF,Humidity,Sea Level PressureIn,VisibilityMPH,Wind Direction,Wind SpeedMPH,Gust SpeedMPH,PrecipitationIn,Events,Conditions,WindDirDegrees,DateUTC
12:10 AM,80.6,71.6,74,29.92,10.0,SW,6.9,-,N/A,,Clear,220,2013-06-27 05:10:00
12:30 AM,80.6,71.6,74,29.92,10.0,SSW,5.8,-,N/A,,Clear,210,2013-06-27 05:30:00
12:50 AM,80.6,71.6,74,29.91,10.0,SW,6.9,-,N/A,,Clear,220,2013-06-27 05:50:00
1:10 AM,80.6,71.6,74,29.92,10.0,SW,4.6,-,N/A,,Clear,220,2013-06-27 06:10:00
1:30 AM,78.8,71.6,78,29.92,10.0,SSW,4.6,-,N/A,,Clear,210,2013-06-27 06:30:00
1:50 AM,78.8,71.6,78,29.92,10.0,South,5.8,-,N/A,,Clear,190,2013-06-27 06:50:00
2:10 AM,78.8,71.6,78,29.92,10.0,SSW,3.5,-,N/A,,Clear,200,2013-06-27 07:10:00
2:30 AM,78.8,71.6,78,29.92,10.0,SSW,3.5,-,N/A,,Clear,200,2013-06-27 07:30:00
2:50 AM,78.8,71.6,78,29.92,10.0,South,4.6,-,N/A,,Clear,190,2013-06-27 07:50:00
3:10 AM,77.0,71.6,83,29.91,10.0,South,4.6,-,N/A,,Clear,190,2013-06-27 08:10:00
3:30 AM,77.0,71.6,83,29.92,10.0,Calm,Calm,-,N/A,,Scattered Clouds,0,2013-06-27 08:30:00
3:50 AM,77.0,71.6,83,29.92,10.0,South,4.6,-,N/A,,Mostly Cloudy,180,2013-06-27 08:50:00
4:10 AM,77.0,71.6,83,29.91,10.0,South,5.8,-,N/A,,Scattered Clouds,190,2013-06-27 09:10:00
4:30 AM,77.0,71.6,83,29.91,10.0,SSW,4.6,-,N/A,,Mostly Cloudy,200,2013-06-27 09:30:00
4:50 AM,77.0,71.6,83,29.91,10.0,SW,5.8,-,N/A,,Overcast,230,2013-06-27 09:50:00
5:10 AM,77.0,71.6,83,29.90,10.0,SW,8.1,-,N/A,,Mostly Cloudy,230,2013-06-27 10:10:00
5:30 AM,77.0,71.6,83,29.90,10.0,WSW,8.1,-,N/A,,Mostly Cloudy,240,2013-06-27 10:30:00
5:50 AM,77.0,71.6,83,29.90,10.0,SW,8.1,-,N/A,,Mostly Cloudy,230,2013-06-27 10:50:00
6:10 AM,77.0,71.6,83,29.90,10.0,WSW,8.1,-,N/A,,Partly Cloudy,240,2013-06-27 11:10:00
6:30 AM,77.0,71.6,83,29.91,10.0,WSW,9.2,-,N/A,,Clear,250,2013-06-27 11:30:00
6:50 AM,77.0,71.6,83,29.91,10.0,WSW,8.1,-,N/A,,Mostly Cloudy,250,2013-06-27 11:50:00
7:10 AM,77.0,71.6,83,29.91,10.0,WSW,8.1,17.3,N/A,,Mostly Cloudy,240,2013-06-27 12:10:00
7:30 AM,78.8,71.6,78,29.92,10.0,WSW,10.4,-,N/A,,Partly Cloudy,240,2013-06-27 12:30:00
7:50 AM,80.6,73.4,79,29.92,10.0,West,9.2,16.1,N/A,,Clear,260,2013-06-27 12:50:00
8:10 AM,82.4,73.4,74,29.92,10.0,West,9.2,-,N/A,,Clear,260,2013-06-27 13:10:00
8:30 AM,82.4,73.4,74,29.92,10.0,West,9.2,17.3,N/A,,Clear,270,2013-06-27 13:30:00
8:50 AM,84.2,73.4,70,29.91,10.0,West,10.4,16.1,N/A,,Clear,270,2013-06-27 13:50:00
9:10 AM,84.2,73.4,70,29.92,10.0,WNW,13.8,17.3,N/A,,Clear,290,2013-06-27 14:10:00
9:30 AM,86.0,73.4,66,29.91,10.0,West,12.7,17.3,N/A,,Clear,260,2013-06-27 14:30:00
9:50 AM,86.0,73.4,66,29.92,10.0,WNW,13.8,19.6,N/A,,Clear,290,2013-06-27 14:50:00
10:10 AM,87.8,75.2,66,29.92,10.0,West,15.0,-,N/A,,Clear,270,2013-06-27 15:10:00
10:30 AM,87.8,75.2,66,29.92,10.0,West,10.4,-,N/A,,Partly Cloudy,280,2013-06-27 15:30:00
10:50 AM,89.6,75.2,62,29.92,10.0,WNW,10.4,16.1,N/A,,Clear,300,2013-06-27 15:50:00
11:10 AM,89.6,75.2,62,29.91,10.0,West,10.4,-,N/A,,Partly Cloudy,280,2013-06-27 16:10:00
11:30 AM,89.6,73.4,59,29.91,10.0,WNW,10.4,17.3,N/A,,Partly Cloudy,290,2013-06-27 16:30:00
11:50 AM,89.6,73.4,59,29.91,10.0,West,6.9,17.3,N/A,,Clear,280,2013-06-27 16:50:00
12:10 PM,91.4,73.4,55,29.91,10.0,West,9.2,17.3,N/A,,Clear,260,2013-06-27 17:10:00
12:30 PM,91.4,73.4,55,29.91,10.0,WNW,15.0,-,N/A,,Clear,290,2013-06-27 17:30:00
12:50 PM,91.4,71.6,52,29.91,10.0,West,12.7,17.3,N/A,,Clear,270,2013-06-27 17:50:00
1:10 PM,93.2,71.6,49,29.90,10.0,WNW,11.5,17.3,N/A,,Clear,300,2013-06-27 18:10:00
1:30 PM,93.2,73.4,52,29.90,10.0,WNW,11.5,-,N/A,,Clear,300,2013-06-27 18:30:00
1:50 PM,93.2,71.6,49,29.90,10.0,NW,13.8,23.0,N/A,,Clear,310,2013-06-27 18:50:00
2:10 PM,93.2,71.6,49,29.90,10.0,WNW,12.7,16.1,N/A,,Clear,300,2013-06-27 19:10:00
2:30 PM,93.2,71.6,49,29.89,10.0,West,10.4,-,N/A,,Clear,280,2013-06-27 19:30:00
2:50 PM,93.2,73.4,52,29.89,10.0,NW,10.4,16.1,N/A,,Partly Cloudy,310,2013-06-27 19:50:00
3:10 PM,93.2,71.6,49,29.89,10.0,NW,11.5,-,N/A,,Partly Cloudy,310,2013-06-27 20:10:00
3:30 PM,93.2,69.8,46,29.89,10.0,WNW,8.1,-,N/A,,Clear,300,2013-06-27 20:30:00
3:50 PM,93.2,71.6,49,29.88,10.0,NW,10.4,-,N/A,,Clear,320,2013-06-27 20:50:00
4:10 PM,93.2,71.6,49,29.88,10.0,WNW,8.1,-,N/A,,Clear,300,2013-06-27 21:10:00
4:30 PM,93.2,71.6,49,29.88,10.0,WNW,10.4,-,N/A,,Clear,300,2013-06-27 21:30:00
4:50 PM,93.2,71.6,49,29.87,10.0,WNW,9.2,-,N/A,,Clear,290,2013-06-27 21:50:00
5:10 PM,93.2,71.6,49,29.86,10.0,NW,10.4,-,N/A,,Partly Cloudy,310,2013-06-27 22:10:00
5:30 PM,93.2,71.6,49,29.86,10.0,NW,6.9,16.1,N/A,,Partly Cloudy,310,2013-06-27 22:30:00
5:50 PM,93.2,71.6,49,29.85,10.0,NW,5.8,-,N/A,,Clear,310,2013-06-27 22:50:00
6:10 PM,93.2,73.4,52,29.85,10.0,WNW,5.8,-,N/A,,Clear,290,2013-06-27 23:10:00
6:30 PM,91.4,73.4,55,29.85,10.0,WNW,3.5,-,N/A,,Clear,300,2013-06-27 23:30:00
6:50 PM,91.4,73.4,55,29.85,10.0,West,4.6,-,N/A,,Clear,280,2013-06-27 23:50:00
7:10 PM,87.8,75.2,66,29.86,8.0,Calm,Calm,-,N/A,,Clear,0,2013-06-28 00:10:00
7:30 PM,86.0,75.2,70,29.86,10.0,West,3.5,-,N/A,,Clear,260,2013-06-28 00:30:00
7:50 PM,86.0,75.2,70,29.87,10.0,West,3.5,-,N/A,,Mostly Cloudy,260,2013-06-28 00:50:00
8:10 PM,84.2,75.2,74,29.86,9.0,Calm,Calm,-,N/A,,Partly Cloudy,0,2013-06-28 01:10:00
8:30 PM,82.4,77.0,84,29.87,10.0,Calm,Calm,-,N/A,,Clear,0,2013-06-28 01:30:00
8:50 PM,82.4,75.2,79,29.87,10.0,Calm,Calm,-,N/A,,Clear,0,2013-06-28 01:50:00
9:10 PM,80.6,77.0,89,29.86,10.0,Calm,Calm,-,N/A,,Clear,0,2013-06-28 02:10:00
9:30 PM,80.6,75.2,84,29.86,10.0,Calm,Calm,-,N/A,,Clear,0,2013-06-28 02:30:00
9:50 PM,80.6,75.2,84,29.85,10.0,Calm,Calm,-,N/A,,Clear,0,2013-06-28 02:50:00
10:10 PM,80.6,75.2,84,29.84,10.0,South,5.8,-,N/A,,Clear,170,2013-06-28 03:10:00
10:30 PM,80.6,75.2,84,29.84,10.0,South,3.5,-,N/A,,Clear,180,2013-06-28 03:30:00
10:50 PM,80.6,75.2,84,29.85,10.0,Calm,Calm,-,N/A,,Clear,0,2013-06-28 03:50:00
11:10 PM,80.6,73.4,79,29.86,10.0,West,3.5,-,N/A,,Clear,280,2013-06-28 04:10:00
11:30 PM,78.8,73.4,83,29.87,10.0,West,5.8,-,N/A,,Clear,270,2013-06-28 04:30:00
11:50 PM,78.8,73.4,83,29.87,10.0,NW,3.5,-,N/A,,Clear,310,2013-06-28 04:50:00